Weather History for KREO - November, 2012

Change the Weather History Date:

Monday, November 5, 2012

  Actual Average Record
Temperature  
Mean Temperature 51 °F 41 °F  
Max Temperature 71 °F 55 °F 73 °F (1975)
Min Temperature 31 °F 27 °F 14 °F (2011)
Degree Days  
Heating Degree Days 14 24  
Month to date heating degree days 85 118  
Since 1 July heating degree days 632 875  
Cooling Degree Days 0 0  
Month to date cooling degree days 0 0  
Year to date cooling degree days 674 507  
Growing Degree Days 1 (Base 50)    
Moisture  
Dew Point 30 °F    
Average Humidity 52    
Maximum Humidity 75    
Minimum Humidity 28    
Precipitation  
Precipitation 0.00 in 0.03 in 0.42 in (1991)
Month to date precipitation 0.00 0.16  
Year to date precipitation 4.50 7.63  
Sea Level Pressure  
Sea Level Pressure 30.36 in    
Wind  
Wind Speed 4 mph (South)    
Max Wind Speed 12 mph    
Max Gust Speed 12 mph    
T = Trace of Precipitation, MM = Missing Value Source: NWS Daily Summary

Daily Weather History Graph

Daily Weather History Graph

Search for Another Location

Airport or City:

Trip Planner

Search our weather history database for the weather conditions in past years. The results will help you decide how hot, cold, wet, or windy it might be!

Date:

Astronomy

Nov. 05, 2012 Rise Set
Actual Time 6:30 AM PST 4:38 PM PST
Civil Twilight 6:01 AM PST 5:08 PM PST
Nautical Twilight 5:27 AM PST 5:41 PM PST
Astronomical Twilight 4:54 AM PST 6:14 PM PST
Moon 10:21 PM PST (11/5) 11:53 AM PST (11/5)
Length of Visible Light 11h 06m
Length of Day
10h 07m
Waning Gibbous, 62% of the Moon is Illuminated
Nov 5
Waning Gibbous
Nov 6
Last Quarter
Nov 13
New
Nov 20
First Quarter
Nov 28
Full

Hourly Weather History & Observations

Time (PST) Temp. Windchill Dew Point Humidity Pressure Visibility Wind Dir Wind Speed Gust Speed Precip Events Conditions
12:52 AM 37.0 °F 33.3 °F 25.0 °F 62% 30.42 in - SW 4.6 mph - N/A   Unknown
1:52 AM 37.0 °F 34.5 °F 25.0 °F 62% 30.41 in - South 3.5 mph - N/A   Unknown
2:52 AM 39.0 °F 35.7 °F 28.0 °F 65% 30.39 in - SSE 4.6 mph - N/A   Unknown
3:52 AM 32.0 °F 27.5 °F 23.0 °F 69% 30.40 in - South 4.6 mph - N/A   Unknown
4:52 AM 33.1 °F 28.7 °F 25.0 °F 72% 30.43 in - SW 4.6 mph - N/A   Unknown
5:52 AM 34.0 °F - 27.0 °F 75% 30.45 in - Calm Calm - N/A   Unknown
6:52 AM 34.0 °F 31.0 °F 26.1 °F 73% 30.44 in - South 3.5 mph - N/A   Unknown
7:52 AM 41.0 °F - 28.9 °F 62% 30.45 in - Calm Calm - N/A   Unknown
8:52 AM 48.9 °F - 30.9 °F 50% 30.43 in - Calm Calm - N/A   Unknown
9:52 AM 57.0 °F - 33.1 °F 40% 30.41 in - West 3.5 mph - N/A   Unknown
10:52 AM 61.0 °F - 35.1 °F 38% 30.38 in - Calm Calm - N/A   Unknown
11:52 AM 64.9 °F - 34.0 °F 32% 30.36 in - NE 4.6 mph - N/A   Unknown
12:52 PM 68.0 °F - 35.1 °F 30% 30.33 in - North 3.5 mph - N/A   Unknown
1:52 PM 69.1 °F - 35.1 °F 29% 30.31 in - Calm Calm - N/A   Unknown
2:52 PM 70.0 °F - 35.1 °F 28% 30.29 in - Calm Calm - N/A   Unknown
3:52 PM 69.1 °F - 35.1 °F 29% 30.30 in - Calm Calm - N/A   Unknown
4:52 PM 64.0 °F - 35.1 °F 34% 30.31 in - Calm Calm - N/A   Unknown
5:52 PM 55.0 °F - 32.0 °F 42% 30.33 in - East 6.9 mph - N/A   Unknown
6:52 PM 51.1 °F - 30.9 °F 46% 30.34 in - SE 10.4 mph - N/A   Unknown
7:52 PM 45.0 °F - 28.0 °F 52% 30.34 in - Calm Calm - N/A   Unknown
8:52 PM 46.9 °F - 30.0 °F 52% 30.32 in - South 6.9 mph - N/A   Unknown
9:52 PM 43.0 °F 38.8 °F 28.9 °F 58% 30.31 in - South 6.9 mph - N/A   Unknown
10:52 PM 41.0 °F 36.4 °F 28.9 °F 62% 30.29 in - SSW 6.9 mph - N/A   Unknown
11:52 PM 43.0 °F 37.7 °F 30.0 °F 60% 30.27 in - South 9.2 mph - N/A   Unknown